Weather in Kakhovka

Ukraine / Kherson District     46°48′24″N   33°28′51″E
temp.,
°C
wind,
m/s
gust,
m/s
humid.,
%
clouds,
%
prec.,
mm/h
press.,
hPa
HPBL,
m
29 november, mon
mon2923:00+11s4897100 0.2 1005241
02:00+10s4996100 0.3 1004224
05:00+11s7149694 0.0 1002322
08:00+12s81781100 0.0 1001591
11:00+13sse81671100 0.2 998510
14:00+15s112065100 1.2 993821
17:00+14ssw12217640 0.7 991792
20:00+13sw12208015 2.3 9911079
30 november, tue
tue3023:00+11wsw9138099 0.1 995721
02:00+8w7107881 0.1 999678
05:00+6w611745 0.0 1001505
08:00+5wsw37754 0.0 1004300
11:00+7nw3454100 0.0 1003459
14:00+7nne3452100 0.0 1000539
17:00+5n7964100 0.1 997593
20:00+5n7963100 0.1 998955
1 december, wed
wed123:00+3nw71069100 0.0 1002735
02:00+1w611710 0.0 1004526
05:00+1wsw512686 0.0 1004383
08:00+3sw5136690 0.0 1004669
11:00+6wsw81355100 0.0 10031640
14:00+7w812537 0.0 10031261
17:00+6w8136091 0.0 10051268
20:00+3wnw711735 0.0 1008696
2 december, thu
thu223:00+1w47755 0.0 1010261
02:00+1wsw237651 0.0 101289
05:00+1s347738 0.0 1012100
08:00+3sse510845 0.0 1012213
11:00+10ssw7126617 0.0 1011911
14:00+11ssw9136767 0.0 1010818
17:00+9ssw81584100 0.0 1010558
20:00+10ssw91583100 0.2 1010782
3 december, fri
fri323:00+10sw7139091 0.1 1010520
02:00+9ssw714858 0.1 1010414
05:00+9s8167830 0.0 1009508
08:00+10s8167475 0.0 1009596
11:00+13ssw101576100 0.0 1008938
14:00+13ssw111673100 0.1 1006915
17:00+12ssw101681100 0.0 1006836
20:00+12ssw101683100 0.1 1006859